Location: Ladrillo (historical)
(32.8195°N, 117.2231°W)
Time: 10:03:43
(UTC+00:00)

Tiangong - Pass Details

Date: 30 September 2021
Orbit: 382 x 385 km, 41.5° (Epoch: 17 October)

Event Time Altitude Azimuth Distance (km) Brightness Sun altitude
Exits shadow 12:27:48 17° 333° (NNW) 1,059 3.1 -16.5°
Maximum altitude 12:28:32 18° 352° (N) 1,012 3.2 -16.4°
Drops below altitude 10° 12:30:46 10° 38° (NE) 1,383 4.5 -15.9°
Sets 12:33:19 0° 59° (ENE) 2,248 6.2 -15.4°
